Home   Weather   McAllen   Past weeks

Flag for USA Past Weather in McAllen, Texas, USA — Yesterday and Last 2 Weeks

Now
51 °F

Fog.


Feels Like: 51 °F
Forecast: 53 / 82 °F
Wind: 3 mph from South

Location: Miller International Airport

Current Time: Dec 6, 2016 at 2:18:28 am

Latest Report: Dec 6, 2016 at 1:53 am


Visibility: 3 mi

Pressure: 29.88 "Hg

Humidity: 89%

Dew Point: 48 °F

Location of McAllenLocation

Past Weather in McAllen — Graph

°F

McAllen Temperature Yesterday

Maximum temperature yesterday: 66 °F (at 2:53 pm)
Minimum temperature yesterday: 52 °F (at 11:53 pm)
Average temperature yesterday: 59 °F

High & Low Weather Summary for the Past Weeks

 TemperatureHumidityPressure
High99 °F (Nov 28, 2:53 pm)93% (Nov 23, 6:53 am)30.31 "Hg (Nov 23, 6:53 am)
Low52 °F (Dec 5, 11:53 pm)16% (Nov 30, 1:53 pm)29.52 "Hg (Nov 28, 3:53 pm)
Average73 °F71%29.94 "Hg
* Reported Nov 21 12:53 am — Dec 6 12:53 am, McAllen, Weather by CustomWeather, © 2016

Note: Actual official high and low records may vary slightly from our data, if they occured in-between our weather recording intervals... More about our weather records

Advertising

McAllen Weather History for the Previous 24 Hours

Scroll right to see more
 ConditionsComfort  
Time TempWeatherWind HumidityBarometerVisibility
12:53 am
Tue, Dec 6
53 °FFog.No wind89%29.87 "Hg2 mi
11:53 pm
Mon, Dec 5
52 °FFog.5 mph89%29.88 "Hg5 mi
10:53 pm54 °FFog.No wind90%29.88 "Hg5 mi
9:53 pm56 °FFog.No wind87%29.88 "Hg4 mi
8:53 pm56 °FClear.No wind87%29.87 "Hg8 mi
7:53 pm58 °FClear.3 mph81%29.86 "Hg10 mi
6:53 pm60 °FClear.No wind75%29.85 "Hg10 mi
5:53 pm62 °FClear.3 mph70%29.84 "Hg9 mi
4:53 pm66 °FSunny.3 mph59%29.83 "Hg10 mi
3:53 pm66 °FSunny.5 mph59%29.82 "Hg10 mi
2:53 pm66 °FSunny.6 mph61%29.82 "Hg10 mi
1:53 pm65 °FPartly sunny.9 mph63%29.84 "Hg10 mi
12:53 pm65 °FOvercast.13 mph66%29.86 "Hg10 mi
11:53 am64 °FPartly sunny.9 mph68%29.90 "Hg10 mi
10:53 am61 °FOvercast.10 mph70%29.92 "Hg10 mi
9:53 am59 °FOvercast.8 mph78%29.92 "Hg10 mi
8:53 am57 °FMostly cloudy.12 mph83%29.91 "Hg10 mi
7:53 am57 °FLight rain. Overcast.9 mph81%29.91 "Hg10 mi
6:53 am56 °FOvercast.12 mph84%29.90 "Hg10 mi
5:53 am56 °FMostly cloudy.8 mph84%29.90 "Hg10 mi
4:53 am56 °FOvercast.10 mph84%29.88 "Hg10 mi
3:53 am56 °FMostly cloudy.12 mph84%29.91 "Hg10 mi
2:53 am56 °FLight rain. Overcast.10 mph84%29.91 "Hg10 mi
Weather by CustomWeather, © 2016

See weather overviewHow to use our weather pages